[[{"header":{"parameterUnit":"m.s-1","parameterCategory":1,"la1":30.2991,"la2":30.254,"lo1":-89.0895,"lo2":-89.0444,"dy":0.0017,"dx":0.0017,"nx":28,"ny":28,"refTime":"2023-03-30T15:00:00:Z","depth":0,"parameterNumber":2,"parameterNumberName":"U-component_of_WINDS"},"data":[0,0,0,0,0,0,0,0,0,0,0,0,0,0,0,0,0,0,0,0,0,0,0,0,0,0,0,0,0,0,0,0,0,0,0,0,0,0,0,0,0,0,0,0,0,0,0,0,0,0,0,0,0,0,0,0,0,0,0.0548,0.0547,0,0.0514,0.0514,0.0514,0.0494,0.0494,0.0494,0.0494,0.0459,0.0458,0.0457,0,0,0,0,0,0,0,0,0,0,0,0,0,0.0594,0.0594,0.0548,0.0547,0.0547,0.0514,0.0514,0.0513,0.0494,0.0494,0.0494,0.0494,0.0459,0.0458,0.0457,0,0,0,0,0,0,0,0,0,0,0,0,0,0.0569,0.0593,0.0548,0.0534,0.0532,0.0514,0.0514,0.0513,0.0494,0.0494,0.0494,0.0494,0.0459,0.0458,0.0457,0.045,0,0,0.0453,0.0452,0,0,0,0,0,0,0,0,0.057,0.0567,0.0536,0.0535,0.0533,0.0508,0.0517,0.0492,0.0494,0.0509,0.0494,0.0494,0.0475,0.0473,0.0466,0.0449,0.0447,0.0453,0.0452,0.0451,0.0451,0,0,0,0,0,0,0,0.0572,0.0568,0.0534,0.0536,0.0534,0.0529,0.0525,0.0512,0.0493,0.0507,0.0506,0.0502,0.0474,0.0468,0.0465,0.0447,0.0453,0.0451,0.0451,0.045,0.0423,0.0423,0,0,0,0,0,0,0.0576,0.057,0.0536,0.0533,0.0552,0.0528,0.0524,0.0516,0.0493,0.0489,0.0502,0.0502,0.047,0.0467,0.0464,0.0456,0.0451,0.045,0.0449,0.0423,0.0423,0.0423,0,0,0,0,0,0,0.0577,0.0573,0.0537,0.0551,0.0546,0.0527,0.0519,0.0516,0.0509,0.0489,0.0486,0.05,0.047,0.0466,0.0454,0.0454,0.0449,0.0448,0.0423,0.0423,0.0423,0.0439,0,0,0,0,0,0,0.0579,0.0574,0.0571,0.0552,0.0546,0.0528,0.0519,0.0515,0.0507,0.0506,0.0485,0.0482,0.047,0.0456,0.0453,0.0452,0.0447,0.0423,0.0423,0.0423,0.0438,0.0439,0.044,0,0,0,0,0,0.0581,0.0577,0.0571,0.0567,0.0542,0.0528,0.0524,0.0511,0.0507,0.0505,0.0492,0.0483,0.0455,0.0455,0.0451,0.045,0.0422,0.0423,0.0423,0.0437,0.0439,0.044,0,0,0,0,0,0,0.0597,0.0574,0.0568,0.0557,0.0545,0.0525,0.0521,0.0513,0.05,0.0499,0.0482,0.0478,0.0468,0.0458,0.0459,0.0443,0.0438,0.0437,0.045,0.0451,0.0453,0.0455,0.0446,0,0,0,0,0,0.0599,0.059,0.057,0.0563,0.0557,0.054,0.0533,0.0524,0.051,0.0504,0.049,0.0477,0.0465,0.0458,0.0446,0.0436,0.0432,0.0434,0.0435,0.0436,0.0436,0.0431,0.0431,0.0423,0.0423,0.0423,0,0,0.0604,0.059,0.0585,0.0566,0.0555,0.0545,0.0536,0.0526,0.0518,0.0502,0.0491,0.048,0.0464,0.0454,0.0448,0.0445,0.0437,0.0436,0.0437,0.0436,0.0431,0.0432,0.0432,0.0424,0.0424,0.0423,0,0,0.0607,0.0596,0.0589,0.0579,0.0563,0.0552,0.055,0.0531,0.0524,0.0512,0.05,0.0491,0.0471,0.046,0.0452,0.0453,0.0444,0.0449,0.0455,0.045,0.0451,0.0452,0.0452,0.0452,0.0449,0.0449,0.0449,0,0.0615,0.0601,0.0587,0.0578,0.057,0.0556,0.0548,0.0539,0.0519,0.0514,0.0511,0.0486,0.0474,0.0461,0.0461,0.0455,0.0453,0.0451,0.0452,0.0452,0.0453,0.0453,0.0453,0.045,0.045,0.045,0.045,0,0.0611,0.0601,0.0597,0.058,0.0572,0.0563,0.0548,0.0541,0.0533,0.0522,0.051,0.0496,0.0481,0.0477,0.0468,0.0463,0.0462,0.0455,0.0449,0.0454,0.0455,0.0455,0.0451,0.0451,0.045,0.045,0,0,0.0623,0.0599,0.0598,0.059,0.0572,0.0564,0.0555,0.0541,0.0536,0.0523,0.0515,0.0499,0.0494,0.0485,0.0474,0.047,0.0472,0.0465,0.0464,0.0467,0.0466,0.0471,0.0472,0.0467,0.0467,0.0466,0.0468,0,0.0625,0.0609,0.0597,0.0586,0.0577,0.0564,0.0556,0.0544,0.0534,0.0525,0.0513,0.0502,0.0496,0.049,0.0485,0.0473,0.0472,0.0473,0.0459,0.0459,0.0464,0.0471,0.0476,0.0478,0.0468,0.0468,0.0468,0,0.0624,0.0612,0.0601,0.0584,0.058,0.0574,0.056,0.0551,0.0537,0.053,0.0521,0.0511,0.0501,0.0496,0.0483,0.0484,0.0478,0.0471,0.047,0.0469,0.0464,0.047,0.0478,0.0479,0.0467,0.0467,0.0467,0,0.0634,0.0616,0.0607,0.0601,0.0581,0.0577,0.0568,0.0554,0.0547,0.0535,0.053,0.0517,0.051,0.05,0.0487,0.0485,0.0475,0.0469,0.0469,0.047,0.0468,0.0468,0.0475,0.0463,0.0463,0.0463,0.0463,0,0.0637,0.063,0.0612,0.0606,0.0598,0.0584,0.0577,0.0567,0.0555,0.0548,0.0535,0.0528,0.0511,0.0502,0.0491,0.0482,0.0479,0.0473,0.047,0.0474,0.0475,0.047,0.0469,0.0463,0.0463,0.0463,0.0463,0,0.0647,0.0634,0.0624,0.0606,0.0602,0.0597,0.0582,0.0576,0.0566,0.0556,0.0553,0.0536,0.0525,0.0511,0.0495,0.0488,0.048,0.0475,0.0485,0.0483,0.0484,0.0484,0.0488,0.0488,0.0477,0.0477,0.0477,0,0.065,0.0645,0.0627,0.0621,0.0613,0.0604,0.0597,0.0583,0.0576,0.056,0.0556,0.0544,0.0534,0.0516,0.0503,0.049,0.0486,0.0488,0.0484,0.0488,0.0486,0.0487,0.0486,0.0489,0.0489,0.049,0.049,0,0.0656,0.065,0.064,0.0629,0.0621,0.0611,0.06,0.0596,0.058,0.0572,0.0561,0.0553,0.0537,0.0525,0.0511,0.0502,0.0493,0.0491,0.0491,0.0495,0.05,0.0498,0.0488,0.0491,0.0491,0.0491,0.0491,0.0491,0.0662,0.0657,0.0645,0.0634,0.0625,0.0616,0.061,0.0599,0.059,0.0576,0.0568,0.0557,0.0544,0.0525,0.0516,0.0507,0.0504,0.0503,0.0503,0.0503,0.0504,0.0502,0.0505,0.0504,0.0504,0.0504,0.0504,0,0.0668,0.0659,0.065,0.0636,0.0628,0.0621,0.061,0.0603,0.0594,0.0583,0.0573,0.056,0.0549,0.0535,0.0523,0.0518,0.0514,0.0516,0.0516,0.0514,0.0508,0.0509,0.052,0.052,0.052,0.052,0.052,0.052,0.067,0.0662,0.0654,0.0642,0.0633,0.0622,0.0616,0.0608,0.0599,0.0585,0.0576,0.0567,0.0555,0.0542,0.0531,0.0528,0.0524,0.0527,0.0522,0.0516,0.0514,0.0513,0.0515,0.0526,0.0526,0.0529,0.0529,0.0529]},{"header":{"parameterUnit":"m.s-1","parameterCategory":1,"la1":30.2991,"la2":30.254,"lo1":-89.0895,"lo2":-89.0444,"dy":0.0017,"dx":0.0017,"nx":28,"ny":28,"refTime":"2023-03-30T15:00:00:Z","depth":0,"parameterNumber":3,"parameterNumberName":"V-component_of_WINDS"},"data":[0,0,0,0,0,0,0,0,0,0,0,0,0,0,0,0,0,0,0,0,0,0,0,0,0,0,0,0,0,0,0,0,0,0,0,0,0,0,0,0,0,0,0,0,0,0,0,0,0,0,0,0,0,0,0,0,0,0,4.4833,4.4834,0,4.4937,4.4938,4.4939,4.4936,4.4934,4.4933,4.4932,4.5037,4.5041,4.5045,0,0,0,0,0,0,0,0,0,0,0,0,0,4.463,4.4634,4.4833,4.4834,4.4835,4.4937,4.4938,4.4939,4.4936,4.4934,4.4933,4.4931,4.5035,4.504,4.5045,0,0,0,0,0,0,0,0,0,0,0,0,0,4.4725,4.4635,4.4832,4.4846,4.4848,4.4936,4.4938,4.494,4.4936,4.4934,4.4932,4.493,4.5034,4.504,4.5046,4.5127,0,0,4.5065,4.5067,0,0,0,0,0,0,0,0,4.4719,4.4732,4.4843,4.4845,4.4848,4.4921,4.4905,4.5002,4.4937,4.4903,4.4932,4.4929,4.5,4.5009,4.5033,4.5132,4.5136,4.5065,4.5069,4.5072,4.5073,0,0,0,0,0,0,0,4.4713,4.4728,4.4874,4.4844,4.4847,4.4846,4.4857,4.4924,4.4962,4.4906,4.4906,4.4918,4.5001,4.5027,4.5035,4.5138,4.5065,4.5071,4.5074,4.5077,4.5311,4.5313,0,0,0,0,0,0,4.4704,4.4722,4.4871,4.4877,4.4777,4.4852,4.4864,4.49,4.4961,4.4969,4.492,4.4918,4.5017,4.5028,4.5039,4.514,4.5072,4.5077,4.5081,4.5308,4.5311,4.5314,0,0,0,0,0,0,4.4699,4.4717,4.4866,4.48,4.4819,4.4858,4.4898,4.4903,4.4929,4.4972,4.4979,4.494,4.5016,4.503,4.5106,4.5143,4.508,4.5086,4.5305,4.5309,4.5313,4.534,0,0,0,0,0,0,4.4694,4.4715,4.4747,4.48,4.4822,4.4932,4.49,4.4907,4.494,4.4938,4.4992,4.4999,4.5015,4.5096,4.5112,4.515,4.5091,4.5302,4.5307,4.5311,4.5336,4.5345,4.5352,0,0,0,0,0,4.4686,4.475,4.4748,4.4766,4.4862,4.4934,4.4946,4.4964,4.4943,4.4975,4.5003,4.4997,4.5136,4.5104,4.5121,4.5163,4.53,4.5306,4.5311,4.5333,4.5343,4.5352,0,0,0,0,0,0,4.4698,4.4757,4.4756,4.4839,4.4881,4.4933,4.4974,4.4974,4.5023,4.5019,4.5038,4.5051,4.5127,4.5152,4.5115,4.5245,4.5215,4.5225,4.5226,4.5236,4.5244,4.5236,4.5096,0,0,0,0,0,4.4711,4.4764,4.4812,4.4881,4.4902,4.4934,4.4966,4.4976,4.5021,4.5039,4.5072,4.5115,4.5169,4.5204,4.5255,4.534,4.5352,4.5377,4.5384,4.539,4.5399,4.5447,4.5459,4.5332,4.5332,4.5332,0,0,4.4737,4.4775,4.4808,4.4884,4.4918,4.4973,4.4949,4.5008,4.5049,4.5047,4.5121,4.5147,4.5197,4.5278,4.5315,4.5301,4.5436,4.5398,4.5402,4.5407,4.5454,4.5466,4.5476,4.5336,4.5335,4.5335,0,0,4.4812,4.4847,4.4908,4.4943,4.4996,4.5017,4.5032,4.5084,4.5102,4.5176,4.5176,4.5225,4.5316,4.5353,4.5383,4.5474,4.5471,4.549,4.553,4.5577,4.5587,4.5596,4.563,4.5642,4.5497,4.5497,4.5497,0,4.4838,4.4921,4.4939,4.5,4.5034,4.5035,4.5098,4.5131,4.5197,4.5221,4.5204,4.532,4.5354,4.5444,4.5466,4.549,4.5508,4.5484,4.5584,4.5593,4.5602,4.5635,4.5647,4.5499,4.5499,4.5499,4.5499,0,4.4951,4.5009,4.5052,4.5118,4.5156,4.5217,4.5245,4.5282,4.5289,4.5312,4.5388,4.5428,4.5489,4.5511,4.5517,4.5602,4.5593,4.558,4.5551,4.5616,4.5647,4.5659,4.5502,4.5502,4.5501,4.5501,0,0,4.5037,4.5113,4.5129,4.5159,4.5218,4.5263,4.5324,4.5384,4.5416,4.5462,4.5514,4.5592,4.5581,4.5616,4.5627,4.5668,4.5739,4.565,4.5652,4.5667,4.5837,4.5847,4.5861,4.5737,4.574,4.5742,4.5833,0,4.512,4.523,4.5249,4.5345,4.5399,4.5402,4.5455,4.5497,4.552,4.557,4.5595,4.5651,4.5631,4.5653,4.5693,4.5722,4.5774,4.5715,4.5787,4.579,4.5776,4.5877,4.5888,4.5972,4.5845,4.5847,4.5849,0,4.5232,4.5282,4.5384,4.5437,4.546,4.5508,4.5565,4.5612,4.566,4.5674,4.5713,4.572,4.5784,4.5751,4.584,4.58,4.583,4.5849,4.5853,4.5861,4.5824,4.5889,4.5999,4.6012,4.5868,4.5866,4.5865,0,4.5286,4.5379,4.5453,4.5478,4.5541,4.5575,4.5603,4.5649,4.5684,4.5734,4.5757,4.5813,4.5844,4.5888,4.591,4.5883,4.5998,4.5966,4.6012,4.6012,4.6037,4.6035,4.6155,4.6054,4.6054,4.6054,4.6054,0,4.5378,4.544,4.5478,4.5524,4.5594,4.5615,4.5684,4.5711,4.5752,4.5802,4.5807,4.5855,4.588,4.5931,4.5949,4.6021,4.6034,4.6048,4.6052,4.6049,4.6047,4.607,4.6065,4.6057,4.6057,4.6056,4.6055,0,4.5451,4.5479,4.556,4.5613,4.5628,4.5678,4.5724,4.5768,4.5791,4.5855,4.5871,4.5908,4.5969,4.5995,4.6069,4.6081,4.6164,4.6163,4.6148,4.615,4.6195,4.6191,4.6334,4.6354,4.6239,4.624,4.6241,0,4.5508,4.5557,4.5616,4.5651,4.568,4.5736,4.5773,4.5795,4.5833,4.5892,4.5929,4.599,4.604,4.6137,4.617,4.6228,4.6229,4.6275,4.6238,4.6233,4.6232,4.6229,4.6235,4.6282,4.6283,4.6284,4.6285,0,4.5608,4.5619,4.5672,4.5731,4.5775,4.5821,4.5867,4.5895,4.5924,4.5967,4.6029,4.6068,4.6145,4.6206,4.6266,4.6294,4.6295,4.6297,4.6311,4.6308,4.6298,4.6306,4.6169,4.6293,4.6293,4.6292,4.6292,4.6291,4.5676,4.572,4.5769,4.5828,4.5865,4.5908,4.5953,4.5982,4.6035,4.61,4.611,4.6177,4.6225,4.6305,4.6336,4.6389,4.6378,4.6397,4.6403,4.6408,4.6411,4.6289,4.64,4.64,4.6399,4.6399,4.6399,0,4.5777,4.5809,4.5863,4.5928,4.5975,4.5972,4.6022,4.6062,4.6121,4.6166,4.6215,4.6288,4.6348,4.6386,4.6446,4.6481,4.6484,4.6497,4.6495,4.6502,4.6417,4.64,4.6494,4.6494,4.6494,4.6494,4.6494,4.6494,4.5835,4.591,4.5928,4.6021,4.6052,4.6119,4.6149,4.6189,4.6224,4.6306,4.6356,4.638,4.6423,4.6486,4.6541,4.6551,4.6573,4.6588,4.6597,4.6517,4.6508,4.6498,4.6482,4.6592,4.6592,4.6677,4.6678,4.6679]}]]